Weerstation Grootegast  Weerstation Grootegast


15 daagse weersverwachting Valencia (ES)

  • Overzicht
  • Per uur
  • 15 dagen
  • Extra
  • Vergelijk
  • Kaarten
  • Dagkaart
  • Meer »
  • Info
  • Statistieken
  • Directe link
    Temp 6h Neerslag Wind  
 07:48     20:24    Daglengte: 12:36 Vandaag
08:00
11°
 
2
14:00
14°
0.5 mm
5
20:00
11°
4.5 mm
5
 07:47     20:25    Daglengte: 12:38 Morgen
02:00
7.4 mm
3
08:00
16.0 mm
3
14:00
12°
18.7 mm
5
20:00
12°
22.6 mm
5
 07:45     20:26    Daglengte: 12:41 Woensdag 01 Apr
02:00
12°
3.4 mm
3
08:00
12°
3.4 mm
3
14:00
15°
63.2 mm
4
20:00
14°
92.1 mm
4
 07:43     20:27    Daglengte: 12:44 Donderdag 02 Apr
02:00
10°
123.5 mm
2
Locatie info
Region: Valenciana
Latitude: 39.4687°N
Longitude: -0.3769°E
23 masl
Postcode: 46002
Temp/Neerslag /Baro Onweer/Dauwpunt
    Temp Baro 1h Neerslag Dauwpunt Wind UV Bewolking  
 07:48     20:24    Daglengte: 12:36 Vandaag
07:00
11°
1012.3 hPa   5.2°
2
Windvlaag: 0.9 m/s
72%
08:00
11°
1012.5 hPa   5.3°
2
Windvlaag: 0.9 m/s
80%
09:00
12°
1013.0 hPa   6.0°
2
Windvlaag: 1.1 m/s
87%
10:00
13°
1013.3 hPa   6.7°
3
Windvlaag: 1.2 m/s
87%
11:00
13°
1013.8 hPa
21%
6.8°
3
Windvlaag: 1.2 m/s
80%
12:00
14°
1013.9 hPa
28%
7.6°
3
Windvlaag: -0.4 m/s
87%
13:00
14°
1013.7 hPa 0.5 mm
21%
7.7°
4
Windvlaag: 0.7 m/s
88%
14:00
14°
1013.4 hPa
15%
7.8°
5
Windvlaag: 1.1 m/s
78%
15:00
13°
1013.1 hPa
18%
7.0°
5
Windvlaag: 1.4 m/s
74%
16:00
13°
1012.8 hPa 0.8 mm
23%
5.2°
5
Windvlaag: 1.5 m/s
88%
17:00
12°
1012.4 hPa 0.7 mm
25%
4.9°
5
Windvlaag: 0.7 m/s
87%
18:00
12°
1012.6 hPa 0.7 mm
75%
4.3°
5
Windvlaag: -0 m/s
90%
19:00
11°
1012.8 hPa 1.1 mm
82%
4.4°
5
Windvlaag: -0.4 m/s
89%
20:00
11°
1013.1 hPa 1.2 mm
82%
4.9°
5
Windvlaag: -1.4 m/s
89%
21:00
10°
1013.2 hPa
82%
5.7°
4
Windvlaag: -1.5 m/s
91%
22:00
10°
Voelt als: 8.3°
1013.6 hPa 1.2 mm
37%
4.9°
3
Windvlaag: -1.8 m/s
91%
23:00
10°
Voelt als: 8.1°
1013.7 hPa
26%
4.6°
3
Windvlaag: -1.8 m/s
90%
 07:47     20:25    Daglengte: 12:38 Morgen
00:00
10°
Voelt als: 7.8°
1013.6 hPa 1.7 mm
20%
4.8°
3
Windvlaag: -1.7 m/s
91%
01:00
Voelt als: 7.8°
1013.2 hPa 2.0 mm
25%
5.6°
3
Windvlaag: -1.4 m/s
91%
02:00
Voelt als: 7.2°
1012.7 hPa 2.6 mm
76%
5.6°
3
Windvlaag: -1.3 m/s
91%
03:00
Voelt als: 6.5°
1012.0 hPa 2.6 mm
82%
5.5°
4
Windvlaag: -1.7 m/s
91%
04:00
Voelt als: 6.3°
1011.4 hPa 2.6 mm
82%
5.3°
4
Windvlaag: -2 m/s
91%
05:00
Voelt als: 6.5°
1010.8 hPa 3.0 mm
82%
5.8°
3
Windvlaag: -1.9 m/s
89%
06:00
Voelt als: 6.7°
1010.3 hPa 2.8 mm
82%
6.4°
4
Windvlaag: -1.5 m/s
91%
07:00
Voelt als: 7.2°
1010.2 hPa 2.7 mm
82%
7.1°
4
Windvlaag: -1.7 m/s
91%
08:00
Voelt als: 7.6°
1010.3 hPa 2.3 mm
82%
7.5°
3
Windvlaag: -1.4 m/s
91%
09:00
Voelt als: 7.9°
1010.6 hPa 2.5 mm
82%
7.9°
3
Windvlaag: 0.5 m/s
91%
10:00
10°
Voelt als: 8.2°
1010.7 hPa 3.0 mm
82%
8.5°
3
Windvlaag: 0.3 m/s
91%
11:00
10°
1010.8 hPa 3.6 mm
82%
9.1°
4
Windvlaag: 0.2 m/s
91%
12:00
11°
1010.5 hPa 3.3 mm
82%
9.6°
5
Windvlaag: 0 m/s
91%
13:00
12°
1010.1 hPa 3.0 mm
82%
10.5°
5
Windvlaag: -2.2 m/s
91%
14:00
12°
1009.9 hPa 3.3 mm
82%
10.9°
5
Windvlaag: -2.4 m/s
89%
15:00
13°
1009.4 hPa 3.8 mm
82%
11.3°
5
Windvlaag: -2.3 m/s
89%
16:00
13°
1009.1 hPa 4.3 mm
82%
11.8°
5
Windvlaag: -2 m/s
86%
17:00
13°
1008.9 hPa 3.8 mm
82%
11.5°
5
Windvlaag: -3 m/s
82%
18:00
13°
1008.8 hPa 2.9 mm
82%
11.1°
5
Windvlaag: -3.6 m/s
84%
19:00
13°
1009.2 hPa 4.1 mm
82%
11.0°
5
Windvlaag: -3.5 m/s
81%
20:00
12°
1009.6 hPa 3.7 mm
82%
10.8°
5
Windvlaag: -3.4 m/s
75%
21:00
12°
1010.1 hPa 3.4 mm
82%
10.6°
5
Windvlaag: -3.1 m/s
80%
22:00
12°
1010.9 hPa
81%
10.4°
5
Windvlaag: -3.1 m/s
78%
23:00
12°
1011.4 hPa
100%
10.0°
5
Windvlaag: -3.3 m/s
64%
 07:45     20:26    Daglengte: 12:41 Woensdag 01 Apr
00:00
12°
1011.8 hPa
99%
10.3°
4
Windvlaag: -3.2 m/s
89%
01:00
12°
1011.9 hPa
50%
10.1°
3
Windvlaag: -3.1 m/s
90%
02:00
12°
1011.7 hPa
49%
9.8°
3
Windvlaag: -3.3 m/s
91%
03:00
12°
1011.4 hPa
95%
9.9°
3
Windvlaag: -3.3 m/s
92%
04:00
12°
1010.8 hPa
97%
10.0°
4
Windvlaag: -3.2 m/s
92%
05:00
12°
1010.6 hPa 3.4 mm
97%
9.8°
5
Windvlaag: -3.1 m/s
92%
06:00
12°
1010.6 hPa
96%
9.6°
4
Windvlaag: -2.9 m/s
89%
07:00
12°
1010.9 hPa
93%
9.4°
3
Windvlaag: -2.5 m/s
94%
08:00
12°
1011.0 hPa
89%
9.4°
3
Windvlaag: -1.8 m/s
93%
09:00
12°
1011.0 hPa
89%
9.8°
3
Windvlaag: 0.8 m/s
95%
10:00
13°
1011.4 hPa
87%
10.0°
3
Windvlaag: 0.7 m/s
98%
11:00
13°
1011.8 hPa 12.3 mm
79%
10.4°
4
Windvlaag: 0.8 m/s
87%
12:00
14°
1012.2 hPa 14.1 mm
33%
11.2°
4
Windvlaag: 0.9 m/s
98%
13:00
14°
1012.1 hPa 17.5 mm
48%
11.3°
4
Windvlaag: 1 m/s
91%
14:00
15°
1011.9 hPa 19.3 mm
100%
11.3°
4
Windvlaag: 1.2 m/s
82%
15:00
15°
1011.4 hPa 11.9 mm
100%
10.3°
4
Windvlaag: 1 m/s
73%
16:00
15°
1010.8 hPa
97%
10.0°
3
Windvlaag: 1 m/s
53%
17:00
15°
1010.6 hPa 20.0 mm
58%
10.3°
4
Windvlaag: 0.7 m/s
52%
18:00
15°
1010.5 hPa 19.9 mm
100%
11.3°
4
Windvlaag: 0.8 m/s
37%
19:00
14°
1010.6 hPa 20.2 mm
100%
10.9°
4
Windvlaag: 1 m/s
34%
20:00
14°
1010.8 hPa 20.1 mm
100%
11.3°
4
Windvlaag: 1 m/s
29%
21:00
13°
1011.2 hPa 20.0 mm
100%
10.8°
4
Windvlaag: 7.1 m/s
31%
22:00
12°
1011.7 hPa 20.3 mm
100%
10.6°
3
Windvlaag: 7.1 m/s
38%
23:00
12°
1012.1 hPa 20.7 mm
100%
10.4°
3
Windvlaag: 7.6 m/s
52%
 07:43     20:27    Daglengte: 12:44 Donderdag 02 Apr
00:00
11°
1012.2 hPa 21.0 mm
100%
10.1°
3
Windvlaag: 8 m/s
53%
01:00
11°
1012.3 hPa 20.9 mm
100%
9.9°
3
Windvlaag: 7.5 m/s
62%
02:00
10°
1012.2 hPa 20.6 mm
100%
9.8°
2
Windvlaag: 0.9 m/s
68%
03:00
10°
1011.8 hPa 20.2 mm
100%
9.6°
2
Windvlaag: 5.6 m/s
72%
04:00
10°
Voelt als: 9.0°
1011.6 hPa 20.4 mm
100%
9.3°
2
Windvlaag: 5.8 m/s
75%
05:00
10°
Voelt als: 8.7°
1011.3 hPa 21.9 mm
100%
9.0°
2
Windvlaag: 6.1 m/s
78%
06:00
10°
Voelt als: 9.1°
1011.2 hPa 23.2 mm
100%
8.8°
1
Windvlaag: 5.8 m/s
80%
Temp/Neerslag /Baro Onweer/Dauwpunt
    Temp Baro Neerslag Dauwpunt Wind Bewolking  
 07:48     20:24    Daglengte: 12:36 Vandaag
08:00
11°
1012.5 hPa   5.3°
2
80%
11:00
13°
1013.8 hPa   6.8°
3
80%
14:00
14°
1013.4 hPa 0.5 mm 7.8°
5
78%
17:00
12°
1012.4 hPa 1.5 mm 4.9°
5
87%
20:00
11°
1013.1 hPa 3.0 mm 4.9°
5
89%
23:00
10°
Voelt als: 8.1°
1013.7 hPa 1.2 mm 4.6°
3
90%
 07:47     20:25    Daglengte: 12:38 Morgen
02:00
Voelt als: 7.2°
1012.7 hPa 6.2 mm 5.6°
3
91%
05:00
Voelt als: 6.5°
1010.8 hPa 8.2 mm 5.8°
3
89%
08:00
Voelt als: 7.6°
1010.3 hPa 7.8 mm 7.5°
3
91%
11:00
10°
1010.8 hPa 9.1 mm 9.1°
4
91%
14:00
12°
1009.9 hPa 9.6 mm 10.9°
5
89%
17:00
13°
1008.9 hPa 11.9 mm 11.5°
5
82%
20:00
12°
1009.6 hPa 10.7 mm 10.8°
5
75%
23:00
12°
1011.4 hPa 3.4 mm 10.0°
5
64%
 07:45     20:26    Daglengte: 12:41 Woensdag 01 Apr
02:00
12°
1011.7 hPa   9.8°
3
91%
05:00
12°
1010.6 hPa 3.4 mm 9.8°
5
92%
08:00
12°
1011.0 hPa   9.4°
3
93%
11:00
13°
1011.8 hPa 12.3 mm 10.4°
4
87%
14:00
15°
1011.9 hPa 50.9 mm 11.3°
4
82%
17:00
15°
1010.6 hPa 31.9 mm 10.3°
4
52%
20:00
14°
1010.8 hPa 60.2 mm 11.3°
4
29%
23:00
12°
1012.1 hPa 61.0 mm 10.4°
3
52%
 07:43     20:27    Daglengte: 12:44 Donderdag 02 Apr
02:00
10°
1012.2 hPa 62.5 mm 9.8°
2
68%
05:00
10°
Voelt als: 8.7°
1011.3 hPa 62.5 mm 9.0°
2
78%
08:00
Voelt als: 9.2°
1011.2 hPa 65.7 mm 8.7°
1
94%
11:00
13°
1010.9 hPa 35.0 mm 9.1°
1
41%
14:00
15°
1010.9 hPa 35.5 mm 9.4°
2
17%
17:00
14°
1011.0 hPa 35.8 mm 9.4°
2
47%
20:00
12°
1011.4 hPa 35.9 mm 9.3°
3
77%
23:00
11°
1012.1 hPa 35.9 mm 9.5°
2
57%
 07:42     20:28    Daglengte: 12:46 Vrijdag 03 Apr
02:00
11°
1012.7 hPa 35.9 mm 9.6°
2
37%
05:00
Voelt als: 8.6°
1012.9 hPa 35.9 mm 8.1°
2
33%
08:00
Voelt als: 7.2°
1013.2 hPa 35.9 mm 6.7°
2
29%
11:00
12°
1014.6 hPa 35.9 mm 7.6°
3
37%
14:00
15°
1016.1 hPa 36.0 mm 8.0°
4
44%
17:00
14°
1016.4 hPa 36.0 mm 9.0°
3
34%
20:00
13°
1016.8 hPa 36.0 mm 9.7°
1
23%
23:00
11°
1017.5 hPa 36.0 mm 8.8°
2
28%
 07:40     20:29    Daglengte: 12:49 Zaterdag 04 Apr
02:00
Voelt als: 8.2°
1018.0 hPa 36.1 mm 7.8°
2
33%
05:00
Voelt als: 7.0°
1017.7 hPa 36.1 mm 6.7°
2
30%
08:00
Voelt als: 5.8°
1017.5 hPa 36.1 mm 5.5°
2
27%
11:00
12°
1017.7 hPa 36.5 mm 8.1°
3
32%
14:00
16°
1017.9 hPa 37.3 mm 10.4°
4
37%
17:00
15°
1017.5 hPa 39.0 mm 11.0°
3
46%
20:00
14°
1017.2 hPa 41.1 mm 11.3°
2
54%
23:00
12°
1018.0 hPa 46.0 mm 10.6°
2
71%
 07:39     20:29    Daglengte: 12:50 Zondag 05 Apr
02:00
10°
1018.6 hPa 50.0 mm 9.7°
2
88%
05:00
10°
1018.4 hPa 52.7 mm 8.8°
2
90%
08:00
10°
Voelt als: 8.6°
1018.3 hPa 59.9 mm 7.9°
2
92%
11:00
13°
1018.7 hPa 69.1 mm 9.0°
2
91%
14:00
16°
1019.2 hPa 73.5 mm 9.8°
2
91%
17:00
15°
1018.8 hPa 77.2 mm 10.5°
2
56%
20:00
13°
1018.5 hPa 79.4 mm 11.0°
2
21%
23:00
12°
1019.3 hPa 81.4 mm 10.0°
2
21%
 07:37     20:30    Daglengte: 12:53 Maandag 06 Apr
02:00
10°
1019.9 hPa 83.4 mm 8.9°
2
21%
05:00
Voelt als: 8.3°
1019.9 hPa   8.0°
2
14%
08:00
Voelt als: 7.3°
1019.9 hPa 171.6 mm 7.2°
2
7%
14:00
18°
1020.8 hPa 176.9 mm 11.3°
3
0%
20:00
15°
1020.4 hPa 180.4 mm 12.0°
2
7%
 07:36     20:31    Daglengte: 12:55 Dinsdag 07 Apr
02:00
11°
1021.8 hPa 181.2 mm 9.4°
2
90%
08:00
10°
1021.3 hPa 182.5 mm 8.6°
1
42%
14:00
18°
1021.6 hPa 184.6 mm 12.8°
3
91%
20:00
15°
1020.1 hPa 186.9 mm 12.6°
3
16%
 07:34     20:32    Daglengte: 12:58 Woensdag 08 Apr
02:00
12°
1021.2 hPa 187.3 mm 11.0°
2
89%
08:00
11°
1019.4 hPa 187.5 mm 10.6°
1
92%
14:00
17°
1025.3 hPa 187.7 mm 10.6°
4
0%
20:00
15°
1024.5 hPa 187.9 mm 11.8°
2
1%
 07:33     20:33    Daglengte: 13:00 Donderdag 09 Apr
02:00
16°
1020.9 hPa 0.1 mm 13.2°
1
39%
08:00
15°
1019.5 hPa   12.3°
1
35%
14:00
21°
1019.4 hPa   11.5°
2
47%
20:00
19°
1017.7 hPa 0.3 mm 12.4°
1
45%
 07:31     20:34    Daglengte: 13:03 Vrijdag 10 Apr
02:00
16°
1020.0 hPa 0.3 mm 11.4°
2
44%
08:00
14°
1020.3 hPa 0.1 mm 10.2°
2
22%
14:00
20°
1020.5 hPa   9.3°
1
33%
20:00
19°
1018.7 hPa 0.1 mm 11.2°
2
28%
 07:30     20:35    Daglengte: 13:05 Zaterdag 11 Apr
02:00
15°
1020.4 hPa   10.9°
2
27%
08:00
14°
1019.8 hPa   9.4°
2
29%
14:00
20°
1019.5 hPa   8.3°
2
20%
20:00
18°
1017.5 hPa   10.6°
3
20%
 07:28     20:36    Daglengte: 13:08 Zondag 12 Apr
02:00
15°
1018.7 hPa   10.3°
1
21%
08:00
14°
1017.6 hPa 0.3 mm 9.5°
2
22%
14:00
19°
1016.7 hPa 0.5 mm 8.7°
2
29%
20:00
18°
1014.6 hPa 0.2 mm 10.5°
3
31%
 07:27     20:37    Daglengte: 13:10 Maandag 13 Apr
02:00
15°
1015.9 hPa 0.2 mm 10.7°
1
34%
08:00
14°
1015.4 hPa 0.1 mm 10.0°
2
34%
14:00
20°
1015.0 hPa   8.8°
1
26%
20:00
19°
1013.4 hPa   10.4°
1
24%
 07:25     20:38    Daglengte: 13:13 Dinsdag 14 Apr
02:00
15°
1014.7 hPa   10.6°
2
27%
  CAPE Lifted Index Hail Supercell Tornado SRH 3km CL BTM PRES CL TOP PRES Swiss DWD icon SMHI TS
 07:48     20:24    Daglengte: 12:36 Vandaag
07:00 0 J/kg 2.4 K 0 % 0 % 0 % 0 m²/s² 0 0 3.78 2
08:00 0 J/kg 2.4 K 0 % 0 % 0 % 0 m²/s² 0 0 3.84 3
09:00 0 J/kg 2.3 K 0 % 0 % 0 % 0 m²/s² 0 0 3.47 3
10:00 2 J/kg 2.1 K 0 % 0 % 0 % 0 m²/s² 0 0 2.52 3
11:00 15 J/kg 2.4 K 0 % 0 % 0 % 0 m²/s² 0 0 2.67 3
12:00 0 J/kg 3.2 K 0 % 0 % 0 % 0 m²/s² 0 0 3.41 3
13:00 1 J/kg 3.9 K 0 % 0 % 0 % 0 m²/s² 0 0 4.23 3
14:00 12 J/kg 3.8 K 0 % 0 % 0 % 0 m²/s² 0 0 4.07 3
15:00 10 J/kg 4.8 K 0 % 0 % 0 % 0 m²/s² 0 0 5.04 3
16:00 0 J/kg 4.0 K 0 % 0 % 0 % 0 m²/s² 0 0 4.57 3
17:00 0 J/kg 3.9 K 0 % 0 % 0 % 0 m²/s² 0 0 4.23 3
18:00 0 J/kg 4.0 K 0 % 0 % 0 % 0 m²/s² 0 0 4.24 3
19:00 0 J/kg 4.7 K 0 % 0 % 0 % 0 m²/s² 0 0 4.94 61
20:00 1 J/kg 5.7 K 0 % 0 % 0 % 0 m²/s² 0 0 6.03 61
21:00 1 J/kg 6.4 K 0 % 0 % 0 % 0 m²/s² 0 0 6.64 61
22:00 3 J/kg 6.6 K 0 % 0 % 0 % 0 m²/s² 0 0 6.81 3
23:00 9 J/kg 6.7 K 0 % 0 % 0 % 0 m²/s² 0 0 6.91 3
 07:47     20:25    Daglengte: 12:38 Morgen
00:00 17 J/kg 6.8 K 0 % 0 % 0 % 0 m²/s² 0 0 7.01 3
01:00 8 J/kg 6.1 K 0 % 0 % 0 % 0 m²/s² 0 0 6.31 3
02:00 4 J/kg 5.4 K 0 % 0 % 0 % 0 m²/s² 0 0 5.64 3
03:00 1 J/kg 4.9 K 0 % 0 % 0 % 0 m²/s² 0 0 5.41 61
04:00 0 J/kg 4.0 K 0 % 0 % 0 % 0 m²/s² 0 0 4.36 61
05:00 0 J/kg 3.9 K 0 % 0 % 0 % 0 m²/s² 0 0 4.26 61
06:00 0 J/kg 3.9 K 0 % 0 % 0 % 0 m²/s² 0 0 4.23 61
07:00 0 J/kg 3.4 K 0 % 0 % 0 % 0 m²/s² 0 0 3.73 61
08:00 2 J/kg 3.1 K 0 % 0 % 0 % 0 m²/s² 0 0 3.31 61
09:00 12 J/kg 1.8 K 0 % 0 % 0 % 0 m²/s² 0 0 2.01 61
10:00 107 J/kg 0.8 K 0 % 0 % 0 % 0 m²/s² 0 0 1.01 61
11:00 118 J/kg 0.4 K 0 % 0 % 0 % 0 m²/s² 0 0 0.61 61
12:00 139 J/kg -0.1 K 0 % 0 % 0 % 0 m²/s² 0 0 0.11 61
13:00 198 J/kg -0.3 K 0 % 0 % 0 % 0 m²/s² 0 0 0.36 61
14:00 349 J/kg -0.9 K 0 % 0 % 0 % 0 m²/s² 0 0 0.15 61
15:00 453 J/kg -1.7 K 0 % 0 % 0 % 0 m²/s² 0 0 -0.5 61
16:00 480 J/kg -2.2 K 0 % 0 % 0 % 0 m²/s² 0 0 -0.52 61
17:00 430 J/kg -2.2 K 0 % 0 % 0 % 0 m²/s² 0 0 -0.28 61
18:00 403 J/kg -1.9 K 0 % 0 % 0 % 0 m²/s² 0 0 -0.16 61
19:00 341 J/kg -1.6 K 0 % 0 % 0 % 0 m²/s² 0 0 -0.13 61
20:00 247 J/kg -1.2 K 0 % 0 % 0 % 0 m²/s² 0 0 0.09 61
21:00 51 J/kg -0.3 K 0 % 0 % 0 % 0 m²/s² 0 0 1.11 61
22:00 0 J/kg 0.1 K 0 % 0 % 0 % 0 m²/s² 0 0 0.82 61
23:00 0 J/kg 0.7 K 0 % 0 % 0 % 0 m²/s² 0 0 1.48 61
 07:45     20:26    Daglengte: 12:41 Woensdag 01 Apr
00:00 0 J/kg 1.0 K 0 % 0 % 0 % 0 m²/s² 0 0 1.72 3
01:00 0 J/kg 0.8 K 0 % 0 % 0 % 0 m²/s² 0 0 2.06 3
02:00 2 J/kg 0.5 K 0 % 0 % 0 % 0 m²/s² 0 0 2.75 3
03:00 22 J/kg 0.2 K 0 % 0 % 0 % 0 m²/s² 0 0 2.54 3
04:00 31 J/kg 0.1 K 0 % 0 % 0 % 0 m²/s² 0 0 2.29 61
05:00 35 J/kg -0.4 K 0 % 0 % 0 % 0 m²/s² 0 0 1.22 3
06:00 92 J/kg -0.8 K 0 % 0 % 0 % 0 m²/s² 0 0 -0.14 3
07:00 224 J/kg -1.2 K 0 % 0 % 0 % 0 m²/s² 0 0 -0.78 3
08:00 379 J/kg -1.3 K 0 % 0 % 0 % 0 m²/s² 0 0 -0.97 3
09:00 289 J/kg -1.2 K 0 % 0 % 0 % 0 m²/s² 0 0 -1.17 3
10:00 51 J/kg -0.3 K 0 % 0 % 0 % 0 m²/s² 0 0 -0.09 3
11:00 32 J/kg -1.3 K 0 % 0 % 0 % 0 m²/s² 0 0 -0.85 3
12:00 34 J/kg -0.7 K 0 % 0 % 0 % 0 m²/s² 0 0 -0.25 3
13:00 0 J/kg 1.3 K 0 % 0 % 0 % 0 m²/s² 0 0 1.39 3
14:00 0 J/kg 1.2 K 0 % 0 % 0 % 0 m²/s² 0 0 1.65 3
15:00 16 J/kg 0.7 K 0 % 0 % 0 % 0 m²/s² 0 0 1.03 61
16:00 16 J/kg 0.4 K 0 % 0 % 0 % 0 m²/s² 0 0 1.06 3
17:00 20 J/kg 0.1 K 0 % 0 % 0 % 0 m²/s² 0 0 0.73 3
18:00 4 J/kg -0.2 K 0 % 0 % 0 % 0 m²/s² 0 0 0.7 61
19:00 3 J/kg 0.2 K 0 % 0 % 0 % 0 m²/s² 0 0 2.66 3
20:00 0 J/kg 0.7 K 0 % 0 % 0 % 0 m²/s² 0 0 4.9 61
21:00 0 J/kg 0.7 K 0 % 0 % 0 % 0 m²/s² 0 0 5.11 61
22:00 2 J/kg -0.5 K 0 % 0 % 0 % 0 m²/s² 0 0 4.24 80
23:00 1 J/kg -0.6 K 0 % 0 % 0 % 0 m²/s² 0 0 3.57 61
 07:43     20:27    Daglengte: 12:44 Donderdag 02 Apr
00:00 0 J/kg -1.2 K 0 % 0 % 0 % 0 m²/s² 0 0 2.67 61
01:00 0 J/kg -1.9 K 0 % 0 % 0 % 0 m²/s² 0 0 0.74 61
02:00 0 J/kg -1.5 K 0 % 0 % 0 % 0 m²/s² 0 0 0.21 61
03:00 0 J/kg -1.0 K 0 % 0 % 0 % 0 m²/s² 0 0 0.23 61
04:00 0 J/kg -0.9 K 0 % 0 % 0 % 0 m²/s² 0 0 0.33 61
05:00 0 J/kg -0.8 K 0 % 0 % 0 % 0 m²/s² 0 0 0.64 63
06:00 0 J/kg -0.2 K 0 % 0 % 0 % 0 m²/s² 0 0 1.12 63
Temp Baro Wind Neerslag
  EWN Forecast EWN WRFDA DWD ICON FMI HIRLAM MET Norway GFS
 07:48     20:24    Daglengte: 12:36 Vandaag
08:00 10.9° 1012.5 hPa 1.8 m/s 0.0 mm 11.3° 1010.9 hPa 0.3 m/s 0.0 mm 12.6° 1012.5 hPa 0.9 m/s -2.0 mm 13.6° 1012.8 hPa 4.7 m/s 0.0 mm 9.0° 1012.8 hPa 1.5 m/s 12.2° 1012.3 hPa 2.3 m/s
11:00 13.4° 1013.8 hPa 2.6 m/s 0.0 mm 13.8° 1012.1 hPa 3.8 m/s 0.0 mm 14.0° 1014.3 hPa 4.2 m/s 0.0 mm 14.7° 1013.6 hPa 4.9 m/s 0.0 mm 12.4° 1014.4 hPa 1.4 m/s 13.7° 1013.4 hPa 4.8 m/s
14:00 13.7° 1013.4 hPa 4.6 m/s 0.5 mm 12.6° 1012.2 hPa 3.8 m/s 5.9 mm 13.5° 1014.2 hPa 5.2 m/s 0.0 mm 15.9° 1013.0 hPa 6.6 m/s 0.0 mm 13.3° 1013.6 hPa 3.8 m/s 11.5° 1013.0 hPa 4.6 m/s
17:00 12.4° 1012.4 hPa 5.3 m/s 1.5 mm 10.9° 1011.4 hPa 7.5 m/s 8.6 mm 12.4° 1012.5 hPa 5.0 m/s 0.0 mm 14.8° 1012.1 hPa 7.6 m/s 0.0 mm 11.7° 1012.6 hPa 4.9 m/s 9.5° 1012.3 hPa 7.5 m/s
20:00 10.6° 1013.1 hPa 4.6 m/s 3.0 mm 10.2° 1011.6 hPa 4.6 m/s 10.8 mm 11.4° 1013.2 hPa 3.3 m/s 0.6 mm 12.1° 1012.9 hPa 7.8 m/s 0.0 mm 9.8° 1013.2 hPa 3.8 m/s 8.4° 1012.2 hPa 5.6 m/s
23:00 9.8° 1013.7 hPa 3.3 m/s 1.2 mm 9.7° 1012.6 hPa 3.0 m/s 14.6 mm 10.9° 1013.4 hPa 1.8 m/s 0.1 mm 11.1° 1013.9 hPa 7.0 m/s 0.0 mm 9.3° 1013.8 hPa 2.9 m/s 9.3° 1013.4 hPa 3.5 m/s
 07:47     20:25    Daglengte: 12:38 Morgen
02:00 9.1° 1012.7 hPa 3.3 m/s 6.2 mm 9.6° 1011.5 hPa 5.1 m/s 26.4 mm 10.3° 1012.8 hPa 2.2 m/s 0.0 mm 10.5° 1012.7 hPa 6.8 m/s 0.0 mm 7.6° 1012.7 hPa 2.4 m/s 9.4° 1012.5 hPa 3.2 m/s
05:00 8.6° 1010.8 hPa 3.4 m/s 8.2 mm 8.8° 1009.5 hPa 6.1 m/s 35.1 mm 9.2° 1011.2 hPa 2.8 m/s 1.7 mm 9.2° 1010.9 hPa 4.3 m/s 0.0 mm 7.9° 1010.8 hPa 1.8 m/s 8.7° 1010.8 hPa 4.0 m/s
08:00 9.2° 1010.3 hPa 3.0 m/s 7.8 mm 10.7° 1008.8 hPa 5.1 m/s 36.2 mm 9.5° 1010.7 hPa 2.8 m/s 0.9 mm 10.0° 1009.9 hPa 7.3 m/s 0.0 mm 8.3° 1010.4 hPa 1.8 m/s 8.1° 1009.9 hPa 3.3 m/s
11:00 10.5° 1010.8 hPa 4.0 m/s 9.1 mm 13.7° 1009.2 hPa 8.0 m/s 39.7 mm 10.4° 1011.5 hPa 2.4 m/s 3.3 mm 12.9° 1010.7 hPa 5.1 m/s 0.0 mm 9.8° 1010.6 hPa 3.8 m/s 9.4° 1010.9 hPa 3.5 m/s
14:00 12.5° 1009.9 hPa 4.7 m/s 9.6 mm 14.9° 1009.6 hPa 7.5 m/s 46.1 mm 12.4° 1010.3 hPa 2.9 m/s 3.4 mm 15.1° 1009.5 hPa 5.4 m/s 0.0 mm 11.0° 1009.8 hPa 3.9 m/s 11.8° 1010.9 hPa 4.5 m/s
17:00 13.0° 1008.9 hPa 5.4 m/s 11.9 mm 15.7° 1008.4 hPa 8.2 m/s 47.7 mm 13.1° 1009.2 hPa 3.8 m/s 5.0 mm 14.7° 1008.0 hPa 6.7 m/s 0.0 mm 11.6° 1008.8 hPa 4.1 m/s 12.4° 1009.9 hPa 2.7 m/s
20:00 12.4° 1009.6 hPa 5.1 m/s 10.7 mm 14.1° 1009.4 hPa 7.0 m/s 48.3 mm 12.6° 1010.4 hPa 3.6 m/s 2.0 mm 14.2° 1008.2 hPa 6.8 m/s 0.0 mm 11.8° 1009.5 hPa 2.8 m/s 12.0° 1010.1 hPa 4.6 m/s
23:00 12.0° 1011.4 hPa 4.5 m/s 3.4 mm 13.2° 1011.1 hPa 5.4 m/s 49.2 mm 12.1° 1011.7 hPa 4.5 m/s 0.5 mm 11.6° 1011.2 hPa 3.3 m/s 12.0° 1012.2 hPa 2.1 m/s
 07:45     20:26    Daglengte: 12:41 Woensdag 01 Apr
02:00 12.0° 1011.7 hPa 3.1 m/s 0.0 mm 12.1° 1011.9 hPa 1.1 m/s 49.5 mm 12.4° 1011.7 hPa 4.9 m/s 0.1 mm 11.8° 1011.0 hPa 2.6 m/s 11.9° 1012.7 hPa 2.4 m/s
05:00 12.1° 1010.6 hPa 4.6 m/s 3.4 mm 12.8° 1011.2 hPa 1.6 m/s 49.7 mm 12.3° 1010.5 hPa 5.0 m/s 0.2 mm 12.0° 1009.8 hPa 4.8 m/s 12.8° 1011.8 hPa 2.7 m/s
08:00 11.8° 1011.0 hPa 2.9 m/s 0.0 mm 13.4° 1011.0 hPa 3.4 m/s 50.9 mm 12.0° 1011.5 hPa 4.2 m/s 0.1 mm 11.6° 1010.0 hPa 2.6 m/s 12.7° 1012.4 hPa 2.6 m/s
11:00 13.4° 1011.8 hPa 3.8 m/s 12.3 mm 12.4° 1011.7 hPa 4.5 m/s 86.7 mm 13.4° 1012.8 hPa 5.1 m/s 0.0 mm 13.5° 1011.5 hPa 2.9 m/s 14.8° 1012.7 hPa 1.9 m/s
14:00 14.6° 1011.9 hPa 3.8 m/s 50.9 mm 13.7° 1012.7 hPa 6.6 m/s 151.1 mm 13.0° 1012.7 hPa 5.5 m/s 0.1 mm 15.7° 1011.0 hPa 1.9 m/s 16.4° 1013.0 hPa 1.1 m/s
17:00 15.1° 1010.6 hPa 4.0 m/s 31.9 mm 14.5° 1011.4 hPa 5.2 m/s 178.0 mm 13.1° 1011.9 hPa 5.3 m/s 0.2 mm 16.1° 1009.6 hPa 2.8 m/s 15.9° 1011.2 hPa 3.9 m/s
20:00 13.7° 1010.8 hPa 4.0 m/s 60.2 mm 13.8° 1011.4 hPa 5.6 m/s 178.5 mm 12.3° 1012.5 hPa 5.3 m/s 1.0 mm 14.0° 1009.9 hPa 2.7 m/s 14.2° 1011.4 hPa 6.4 m/s
23:00 11.7° 1012.1 hPa 2.9 m/s 61.0 mm 12.4° 1013.4 hPa 5.0 m/s 178.5 mm 11.2° 1013.5 hPa 3.2 m/s 2.3 mm 11.7° 1010.8 hPa 2.2 m/s 11.9° 1013.6 hPa 4.4 m/s
 07:43     20:27    Daglengte: 12:44 Donderdag 02 Apr
02:00 10.2° 1012.2 hPa 2.2 m/s 62.5 mm 12.2° 1012.7 hPa 4.6 m/s 179.2 mm 10.9° 1013.0 hPa 2.4 m/s 4.2 mm 9.3° 1011.6 hPa 1.6 m/s 12.2° 1013.4 hPa 1.7 m/s
05:00 9.7° 1011.3 hPa 2.1 m/s 62.5 mm 10.9° 1010.9 hPa 3.1 m/s 179.8 mm 10.2° 1012.0 hPa 2.9 m/s 3.9 mm 9.1° 1011.2 hPa 1.3 m/s 11.8° 1012.3 hPa 1.5 m/s
08:00 9.5° 1011.2 hPa 1.4 m/s 65.7 mm 11.7° 1011.2 hPa 5.1 m/s 180.0 mm 9.8° 1012.5 hPa 1.0 m/s 8.6 mm 8.8° 1010.8 hPa 1.0 m/s 11.3° 1012.7 hPa 1.9 m/s
11:00 13.0° 1010.9 hPa 1.4 m/s 35.0 mm 12.9° 1010.7 hPa 1.5 m/s 13.7° 1013.2 hPa 0.8 m/s 35.0 mm
14:00 15.0° 1010.9 hPa 1.9 m/s 35.5 mm 15.0° 1010.7 hPa 1.7 m/s 14.4° 1013.0 hPa 4.7 m/s 35.5 mm
17:00 13.7° 1011.0 hPa 2.5 m/s 35.8 mm 13.7° 1011.0 hPa 2.1 m/s 14.2° 1011.4 hPa 5.8 m/s 35.8 mm
20:00 12.4° 1011.4 hPa 2.6 m/s 35.9 mm 12.3° 1011.3 hPa 2.6 m/s 12.9° 1011.9 hPa 2.9 m/s 35.9 mm
23:00 11.4° 1012.1 hPa 2.1 m/s 35.9 mm 11.4° 1012.0 hPa 2.2 m/s 11.8° 1014.0 hPa 1.2 m/s 35.9 mm
 07:42     20:28    Daglengte: 12:46 Vrijdag 03 Apr
02:00 10.5° 1012.7 hPa 1.8 m/s 35.9 mm 10.5° 1012.6 hPa 1.8 m/s 10.8° 1013.7 hPa 1.9 m/s 35.9 mm
05:00 9.5° 1012.9 hPa 2.0 m/s 35.9 mm 9.4° 1012.9 hPa 2.0 m/s 10.4° 1012.5 hPa 1.5 m/s 35.9 mm
08:00 8.4° 1013.2 hPa 2.2 m/s 35.9 mm 8.3° 1013.2 hPa 2.3 m/s 10.0° 1013.0 hPa 1.2 m/s 35.9 mm
11:00 12.0° 1014.6 hPa 2.9 m/s 35.9 mm 11.9° 1014.8 hPa 3.1 m/s 13.1° 1013.5 hPa 0.4 m/s 35.9 mm
14:00 15.4° 1016.1 hPa 4.0 m/s 36.0 mm 15.5° 1016.3 hPa 4.0 m/s 14.8° 1013.9 hPa 4.3 m/s 36.0 mm
17:00 14.2° 1016.4 hPa 2.7 m/s 36.0 mm 14.2° 1016.7 hPa 2.4 m/s 14.7° 1013.0 hPa 5.6 m/s 36.0 mm
20:00 12.8° 1016.8 hPa 1.0 m/s 36.0 mm 12.8° 1017.1 hPa 0.8 m/s 13.0° 1013.6 hPa 3.7 m/s 36.0 mm
23:00 10.9° 1017.5 hPa 1.5 m/s 36.0 mm 10.9° 1017.7 hPa 1.5 m/s 11.2° 1015.7 hPa 2.6 m/s 36.0 mm
 07:40     20:29    Daglengte: 12:49 Zaterdag 04 Apr
02:00 9.3° 1018.0 hPa 2.1 m/s 36.1 mm 9.0° 1018.2 hPa 2.1 m/s 12.1° 1015.8 hPa 2.0 m/s 36.1 mm
05:00 8.3° 1017.7 hPa 2.3 m/s 36.1 mm 8.0° 1018.0 hPa 2.2 m/s 11.3° 1014.7 hPa 3.5 m/s 36.1 mm
08:00 7.4° 1017.5 hPa 2.5 m/s 36.1 mm 7.0° 1017.7 hPa 2.2 m/s 11.8° 1015.0 hPa 5.6 m/s 36.1 mm
11:00 11.5° 1017.7 hPa 3.3 m/s 36.5 mm 11.4° 1018.0 hPa 2.8 m/s 12.9° 1014.8 hPa 8.8 m/s 36.5 mm
14:00 15.6° 1017.9 hPa 3.8 m/s 37.3 mm 15.8° 1018.2 hPa 3.3 m/s 13.3° 1014.8 hPa 9.6 m/s 37.3 mm
17:00 14.8° 1017.5 hPa 2.9 m/s 39.0 mm 14.9° 1017.9 hPa 2.5 m/s 14.0° 1013.6 hPa 8.4 m/s 39.0 mm
20:00 13.8° 1017.2 hPa 1.9 m/s 41.1 mm 13.9° 1017.6 hPa 1.6 m/s 13.3° 1013.3 hPa 5.3 m/s 41.1 mm
23:00 12.1° 1018.0 hPa 1.9 m/s 46.0 mm 12.0° 1018.3 hPa 1.6 m/s 12.7° 1014.5 hPa 4.9 m/s 46.0 mm
 07:39     20:29    Daglengte: 12:50 Zondag 05 Apr
02:00 10.3° 1018.6 hPa 2.2 m/s 50.0 mm 10.1° 1019.0 hPa 1.7 m/s 12.9° 1013.8 hPa 7.6 m/s 50.0 mm
05:00 10.1° 1018.4 hPa 2.3 m/s 52.7 mm 9.8° 1019.0 hPa 1.8 m/s 12.9° 1011.6 hPa 8.2 m/s 52.7 mm
08:00 9.8° 1018.3 hPa 2.5 m/s 59.9 mm 9.5° 1019.0 hPa 1.8 m/s 13.2° 1010.8 hPa 10.0 m/s 59.9 mm
11:00 12.8° 1018.7 hPa 2.5 m/s 69.1 mm 12.8° 1019.5 hPa 1.8 m/s 13.0° 1010.4 hPa 9.9 m/s 69.1 mm
14:00 15.9° 1019.2 hPa 2.4 m/s 73.5 mm 16.0° 1020.0 hPa 1.8 m/s 14.3° 1010.9 hPa 9.6 m/s 73.5 mm
17:00 14.6° 1018.8 hPa 2.4 m/s 77.2 mm 14.7° 1019.5 hPa 1.8 m/s 14.0° 1010.7 hPa 9.4 m/s 77.2 mm
20:00 13.3° 1018.5 hPa 2.3 m/s 79.4 mm 13.3° 1019.1 hPa 1.7 m/s 13.9° 1011.5 hPa 8.5 m/s 79.4 mm
23:00 11.7° 1019.3 hPa 2.0 m/s 81.4 mm 11.5° 1019.8 hPa 1.6 m/s 13.9° 1013.9 hPa 6.2 m/s 81.4 mm
 07:37     20:30    Daglengte: 12:53 Maandag 06 Apr
02:00 10.1° 1019.9 hPa 1.9 m/s 83.4 mm 9.7° 1020.4 hPa 1.5 m/s 13.9° 1014.7 hPa 6.2 m/s 83.4 mm
05:00 9.2° 1019.9 hPa 2.0 m/s 85.4 mm 8.8° 1020.3 hPa 1.4 m/s 13.7° 1014.6 hPa 7.6 m/s 85.4 mm
08:00 8.4° 1019.9 hPa 2.0 m/s 86.2 mm 7.9° 1020.3 hPa 1.4 m/s 13.8° 1015.8 hPa 8.8 m/s 86.2 mm
14:00 17.6° 1020.8 hPa 3.3 m/s 89.3 mm 17.9° 1021.0 hPa 2.8 m/s 14.0° 1018.5 hPa 8.5 m/s 89.3 mm
20:00 14.7° 1020.4 hPa 2.3 m/s 90.3 mm 14.7° 1020.5 hPa 1.9 m/s 14.4° 1019.9 hPa 6.8 m/s 90.3 mm
 07:36     20:31    Daglengte: 12:55 Dinsdag 07 Apr
02:00 10.6° 1021.8 hPa 1.5 m/s 90.7 mm 10.3° 1021.7 hPa 1.2 m/s 13.8° 1022.8 hPa 5.2 m/s 90.7 mm
08:00 10.0° 1021.3 hPa 0.9 m/s 91.4 mm 9.7° 1021.1 hPa 0.6 m/s 13.5° 1022.9 hPa 4.1 m/s 91.4 mm
14:00 17.6° 1021.6 hPa 3.5 m/s 92.8 mm 17.8° 1021.4 hPa 3.2 m/s 15.7° 1024.1 hPa 6.6 m/s 92.8 mm
20:00 15.2° 1020.1 hPa 3.4 m/s 93.5 mm 15.3° 1019.8 hPa 3.4 m/s 14.6° 1023.3 hPa 3.1 m/s 93.5 mm
 07:34     20:32    Daglengte: 12:58 Woensdag 08 Apr
02:00 12.5° 1021.2 hPa 1.9 m/s 93.7 mm 12.4° 1020.7 hPa 1.9 m/s 13.1° 1026.3 hPa 2.0 m/s 93.7 mm
08:00 11.4° 1019.4 hPa 0.9 m/s 93.7 mm 11.3° 1018.9 hPa 0.9 m/s 12.3° 1025.4 hPa 1.1 m/s 93.7 mm
14:00 16.7° 1025.3 hPa 4.1 m/s 93.9 mm 16.7° 1025.3 hPa 4.1 m/s 93.9 mm
20:00 15.0° 1024.5 hPa 2.3 m/s 94.0 mm 15.0° 1024.5 hPa 2.3 m/s 94.0 mm
 07:33     20:33    Daglengte: 13:00 Donderdag 09 Apr
02:00 16.0° 1020.9 hPa 1.2 m/s 0.1 mm
08:00 15.4° 1019.5 hPa 1.2 m/s 0.0 mm
14:00 21.1° 1019.4 hPa 1.6 m/s 0.0 mm
20:00 19.3° 1017.7 hPa 1.4 m/s 0.3 mm
 07:31     20:34    Daglengte: 13:03 Vrijdag 10 Apr
02:00 15.9° 1020.0 hPa 2.0 m/s 0.3 mm
08:00 14.3° 1020.3 hPa 2.2 m/s 0.1 mm
14:00 20.0° 1020.5 hPa 0.9 m/s 0.0 mm
20:00 18.5° 1018.7 hPa 2.3 m/s 0.1 mm
 07:30     20:35    Daglengte: 13:05 Zaterdag 11 Apr
02:00 15.2° 1020.4 hPa 2.0 m/s 0.0 mm
08:00 14.1° 1019.8 hPa 2.3 m/s 0.0 mm
14:00 19.9° 1019.5 hPa 1.9 m/s 0.0 mm
20:00 18.1° 1017.5 hPa 3.0 m/s 0.0 mm
 07:28     20:36    Daglengte: 13:08 Zondag 12 Apr
02:00 14.7° 1018.7 hPa 1.4 m/s 0.0 mm
08:00 13.6° 1017.6 hPa 1.6 m/s 0.3 mm
14:00 19.3° 1016.7 hPa 2.2 m/s 0.5 mm
20:00 18.1° 1014.6 hPa 3.0 m/s 0.2 mm
 07:27     20:37    Daglengte: 13:10 Maandag 13 Apr
02:00 14.9° 1015.9 hPa 0.9 m/s 0.2 mm
08:00 14.1° 1015.4 hPa 1.6 m/s 0.1 mm
14:00 20.1° 1015.0 hPa 0.7 m/s 0.0 mm
20:00 18.8° 1013.4 hPa 1.4 m/s 0.0 mm
 07:25     20:38    Daglengte: 13:13 Dinsdag 14 Apr
02:00 15.4° 1014.7 hPa 2.3 m/s 0.0 mm
FMI Hirlam - 7.5 km EWN WRFDA - 12 km DWD ICON - 7 km GFS - 25 km Basiskaart